Regional Weather Roundup
Issued by NWS

Home | Current Version | Previous Version | Graphics & Text | Print | Product List | Glossary On
Versions: 1 2 3 4 5 6 7 8 9 10 11 12 13 14 15 16 17 18 19 20 21 22 23 24 25 26 27 28 29 30 31 32 33 34 35 36 37 38 39 40 41 42 43 44 45 46 47 48 49 50
000
ASUS43 KLOT 220808
RWRIL

ILLINOIS REGIONAL WEATHER ROUNDUP
NATIONAL WEATHER SERVICE CHICAGO/ROMEOVILLE IL
300 AM CDT SUN APR 22 2018

NOTE: "FAIR" INDICATES FEW OR NO CLOUDS BELOW 12,000 FEET WITH NO
SIGNIFICANT WEATHER AND/OR OBSTRUCTIONS TO VISIBILITY.

* THESE STATIONS ARE NOT UNDER NWS QUALITY CONTROL. THEY ALSO MAY NOT
  REPORT WEATHER SUCH AS PRECIPITATION OR FOG.

ILZ001-002-007-009-015-016-024-220900-
NORTHWEST ILLINOIS

CITY           SKY/WX    TMP DP  RH WIND       PRES   REMARKS
MOLINE         FAIR      47  26  44 E7        30.29R
STERLING*      CLOUDY    44  26  49 E10       30.30F
SAVANNA*       FAIR      46  24  42 E8        30.32S
$$

ILZ003-004-008-010-011-017-018-220900-
NORTH CENTRAL ILLINOIS

CITY           SKY/WX    TMP DP  RH WIND       PRES   REMARKS
ROCKFORD       CLOUDY    44  21  40 E9        30.33F
FREEPORT*      CLOUDY    41  29  63 CALM      30.34S
ROCHELLE*      CLOUDY    43  26  50 E10       30.32S
DE KALB*       FAIR      43  23  45 E7        30.33S
PERU*          FAIR      47  26  43 E8        30.31R
$$

ILZ005-006-012>014-019>023-220900-
NORTHEAST ILLINOIS

CITY           SKY/WX    TMP DP  RH WIND       PRES   REMARKS
CHICAGO-OHARE  CLOUDY    44  20  38 NE9       30.33F
CHICAGO-MIDWAY CLOUDY    45  18  34 E7        30.34F
AURORA         CLOUDY    43  24  47 E8        30.32F
LANSING*       FAIR      42  31  66 CALM      30.34S
JOLIET*        MOCLDY    46  23  39 NE9       30.31F
WAUKEGAN       FAIR      33  26  75 NE3       30.35F
DUPAGE AIRPORT MOCLDY    43  21  41 E6        30.32F
KANKAKEE*      FAIR      42  30  61 E9        30.31F
WHEELING       FAIR      42  24  49 CALM      30.36F
MORRIS*        MOCLDY    43  26  51 NE7       30.30F
ROMEOVILLE*    CLOUDY    43  24  47 E12       30.33F
NORTHERLY ISL    N/A     41  25  53 N7          N/A
$$

LMZ740>746-220900-
SOUTHERN LAKE MICHIGAN

STATION/POSITION SKY/WX   TEMP    WIND        PRES    VSBY  WAVE
                          AIR SEA DIR/SP/G                  HT/PER
                          (F)     (DEG/KT/KT) (MB)    (MI)  (FT/S)
HARRISON CRIB              40     350/  6/  6   N/A
BURNHAM HARBOR             41     340/  4/  6   N/A
CALUMET HARBOR             41     350/  3/  6 1026.8F
BURNS HARBOR               42      80/  7/  9 1027.8F
MICHIGAN CITY              42      50/  6/  6   N/A
$$

ILZ025>027-034>036-040-047-049-050-058-095>099-220900-
WEST-CENTRAL ILLINOIS

CITY           SKY/WX    TMP DP  RH WIND       PRES   REMARKS
QUINCY         CLOUDY    51  31  46 E14       30.19F
GALESBURG*     FAIR      52  32  46 E9        30.29R
MACOMB*        CLOUDY    47  31  53 E13       30.27S
JACKSONVILLE*  CLOUDY    48  32  52 NE12      30.20F
PITTSFIELD*    CLOUDY    52  33  47 NE5       30.21S
$$

ILZ028>032-037-038-041>044-048-051>054-059>061-220900-
CENTRAL ILLINOIS

CITY           SKY/WX    TMP DP  RH WIND       PRES   REMARKS
PONTIAC        FAIR      44  29  56 E12       30.29S
BLOOMINGTON    FAIR      45  32  60 E15       30.26F
DECATUR        FAIR      47  32  56 E12       30.23S
PEORIA         FAIR      48  30  49 E13       30.27R
LACON*         FAIR      45  28  50 E8        30.28S
LINCOLN*       FAIR      48  32  54 E7        30.25R
SPRINGFIELD    MOCLDY    51  31  46 E10       30.23S
TAYLORVILLE    FAIR      49  31  50 E9        30.22R
$$

ILZ033-039-045-046-055>057-062-063-220900-
EAST-CENTRAL ILLINOIS

CITY           SKY/WX    TMP DP  RH WIND       PRES   REMARKS
CHAMPAIGN      FAIR      49  30  48 E15       30.25F
DANVILLE*      FAIR      46  30  53 E6        30.26S
RANTOUL*       FAIR      48  32  54 NE10      30.27R
MATTOON        MOCLDY    51  28  41 E7        30.22F
PARIS*         FAIR      49  32  52 E8        30.27R
$$

ILZ079-100>102-220900-
SOUTHWEST ILLINOIS

CITY           SKY/WX    TMP DP  RH WIND       PRES   REMARKS
ALTON          CLOUDY    53  34  47 E8        30.17S
BELLEVILLE     MOCLDY    54  34  46 E8        30.14F
CAHOKIA*       CLOUDY    55  32  41 E8        30.15F
SPARTA*        CLOUDY    55  40  56 E9        30.15S
$$

ILZ064>066-069>071-074>076-080>082-084>086-088>090-092>094-220900-
SOUTH-CENTRAL ILLINOIS

CITY           SKY/WX    TMP DP  RH WIND       PRES   REMARKS
CARBONDALE     LGT RAIN  57  41  55 SE9       30.15F
CAIRO*         DRIZZLE   55  48  75 NE9       30.13S
EFFINGHAM*     CLOUDY    52  34  50 NE5       30.23S
MARION         LGT RAIN  54  43  67 E6        30.17S
MT. VERNON     FAIR      55  34  45 E6        30.19S
CENTRALIA*     LGT RAIN  55  35  47 E9        30.16S
SALEM*         CLOUDY    56  30  37 E8        30.18F
METROPOLIS*    LGT RAIN  56  46  69 N7        30.14F
$$

ILZ067-068-072-073-078-083-087-091-220900-
SOUTHEAST ILLINOIS

CITY           SKY/WX    TMP DP  RH WIND       PRES   REMARKS
LAWRENCEVILLE  FAIR      54  29  38 E8        30.23S
FLORA*         CLOUDY    56  31  39 E7        30.21S
FAIRFIELD*     CLOUDY    55  31  40 E9        30.17F
HARRISBURG*    LGT RAIN  52  45  76 E13       30.19F
ROBINSON*      FAIR      51  29  43 E8        30.24S
CARMI*         DRIZZLE   53  40  61 SE9       30.20S
$$

ABBREVIATIONS USED IN REMARKS
   TC - TEMPERATURE IN CELSIUS
  WCI - WIND CHILL INDEX
   HX - HEAT INDEX
  VSB - VISIBILITY
$$




USA.gov is the U.S. government's official web portal to all federal, state and local government web resources and services.